[[{"header":{"parameterUnit":"m.s-1","parameterCategory":1,"la1":30.2991,"la2":30.254,"lo1":-89.0895,"lo2":-89.0444,"dy":0.0017,"dx":0.0017,"nx":28,"ny":28,"refTime":"2023-11-10T09:00:00:Z","depth":0,"parameterNumber":2,"parameterNumberName":"U-component_of_WINDS"},"data":[0,0,0,0,0,0,0,0,0,0,0,0,0,0,0,0,0,0,0,0,0,0,0,0,0,0,0,0,0,0,0,0,0,0,0,0,0,0,0,0,0,0,0,0,0,0,0,0,0,0,0,0,0,0,0,0,0,0,-3.4217,-3.4217,0,-3.4223,-3.4223,-3.4223,-3.4132,-3.413,-3.4127,-3.4125,-3.4131,-3.4133,-3.4136,0,0,0,0,0,0,0,0,0,0,0,0,0,-3.4128,-3.413,-3.4217,-3.4217,-3.4217,-3.4223,-3.4223,-3.4223,-3.4132,-3.4129,-3.4126,-3.4124,-3.413,-3.4133,-3.4136,0,0,0,0,0,0,0,0,0,0,0,0,0,-3.4154,-3.4131,-3.4217,-3.4173,-3.4169,-3.4223,-3.4223,-3.4223,-3.4133,-3.4129,-3.4126,-3.4122,-3.4129,-3.4133,-3.4136,-3.4234,0,0,-3.4148,-3.4149,0,0,0,0,0,0,0,0,-3.4152,-3.4157,-3.4179,-3.4176,-3.4172,-3.4173,-3.4194,-3.4227,-3.4134,-3.4147,-3.4125,-3.412,-3.4148,-3.415,-3.4159,-3.4234,-3.4234,-3.4148,-3.415,-3.4152,-3.4153,0,0,0,0,0,0,0,-3.4151,-3.4156,-3.422,-3.418,-3.4175,-3.4153,-3.4152,-3.42,-3.4168,-3.4145,-3.4139,-3.4141,-3.4145,-3.4156,-3.4159,-3.4234,-3.4148,-3.4151,-3.4153,-3.4155,-3.4389,-3.4393,0,0,0,0,0,0,-3.4155,-3.4155,-3.4219,-3.422,-3.4153,-3.4157,-3.4157,-3.4176,-3.4167,-3.4162,-3.4144,-3.4136,-3.4151,-3.4154,-3.4158,-3.4272,-3.4152,-3.4155,-3.4157,-3.4385,-3.439,-3.4395,0,0,0,0,0,0,-3.4153,-3.4161,-3.4219,-3.4186,-3.4191,-3.4163,-3.4186,-3.4178,-3.4189,-3.4166,-3.416,-3.416,-3.4148,-3.4153,-3.4216,-3.427,-3.4157,-3.416,-3.4381,-3.4387,-3.4393,-3.4499,0,0,0,0,0,0,-3.4151,-3.4161,-3.4198,-3.4187,-3.4194,-3.4276,-3.4189,-3.4181,-3.4196,-3.4186,-3.418,-3.4176,-3.4146,-3.4211,-3.4219,-3.4274,-3.4163,-3.4376,-3.4384,-3.4391,-3.449,-3.4508,-3.4523,0,0,0,0,0,-3.4148,-3.4227,-3.42,-3.4208,-3.4238,-3.428,-3.4283,-3.4247,-3.42,-3.4237,-3.4222,-3.4176,-3.4263,-3.4218,-3.4227,-3.4283,-3.4372,-3.4381,-3.439,-3.4483,-3.4504,-3.4522,0,0,0,0,0,0,-3.4245,-3.4225,-3.4195,-3.4273,-3.4279,-3.4264,-3.4309,-3.4271,-3.429,-3.428,-3.4235,-3.4235,-3.4305,-3.43,-3.425,-3.4377,-3.4309,-3.4321,-3.4377,-3.4397,-3.4413,-3.4412,-3.4166,0,0,0,0,0,-3.4275,-3.431,-3.4291,-3.4362,-3.4367,-3.4338,-3.4354,-3.4326,-3.4331,-3.4332,-3.4322,-3.4328,-3.4357,-3.4377,-3.4402,-3.449,-3.4487,-3.4533,-3.4549,-3.4563,-3.4573,-3.4619,-3.4639,-3.4424,-3.4424,-3.4424,0,0,-3.4338,-3.4332,-3.4357,-3.4382,-3.4383,-3.442,-3.434,-3.4383,-3.441,-3.4339,-3.4397,-3.439,-3.4394,-3.447,-3.4502,-3.4468,-3.4631,-3.4574,-3.4585,-3.4588,-3.463,-3.465,-3.4668,-3.443,-3.4429,-3.4428,0,0,-3.4472,-3.4471,-3.453,-3.4533,-3.4536,-3.4517,-3.4531,-3.4523,-3.4516,-3.4573,-3.4521,-3.4553,-3.4603,-3.4608,-3.4617,-3.4755,-3.4713,-3.4764,-3.4849,-3.4894,-3.4911,-3.4926,-3.4975,-3.4993,-3.4775,-3.4775,-3.4775,0,-3.455,-3.4604,-3.4565,-3.4612,-3.4624,-3.4562,-3.4621,-3.4626,-3.4638,-3.4648,-3.4609,-3.4672,-3.467,-3.4746,-3.478,-3.4789,-3.4804,-3.4764,-3.4912,-3.4926,-3.4939,-3.4986,-3.5004,-3.4781,-3.478,-3.478,-3.4779,0,-3.47,-3.4739,-3.4786,-3.4799,-3.4817,-3.487,-3.4839,-3.4862,-3.4833,-3.4818,-3.4878,-3.4873,-3.4897,-3.4913,-3.4885,-3.4985,-3.4964,-3.492,-3.4851,-3.4967,-3.5009,-3.5027,-3.479,-3.4788,-3.4786,-3.4784,0,0,-3.4893,-3.4885,-3.4903,-3.4908,-3.4908,-3.4937,-3.4987,-3.501,-3.5031,-3.5041,-3.5083,-3.5127,-3.5087,-3.5097,-3.5069,-3.511,-3.5219,-3.506,-3.5059,-3.5089,-3.5329,-3.5362,-3.5383,-3.5191,-3.5195,-3.5197,-3.5329,0,-3.5023,-3.5109,-3.5076,-3.5164,-3.5199,-3.5141,-3.5185,-3.519,-3.5177,-3.5206,-3.5192,-3.5224,-3.5168,-3.5174,-3.5211,-3.5198,-3.5266,-3.5188,-3.5229,-3.5231,-3.5229,-3.5405,-3.544,-3.5564,-3.5345,-3.5348,-3.535,0,-3.5186,-3.5203,-3.5295,-3.5289,-3.5303,-3.5343,-3.5362,-3.5389,-3.5394,-3.5382,-3.5395,-3.5358,-3.5408,-3.534,-3.5408,-3.5355,-3.537,-3.5366,-3.537,-3.5372,-3.5297,-3.5411,-3.5602,-3.5621,-3.5376,-3.5374,-3.5372,0,-3.5317,-3.5364,-3.5425,-3.5431,-3.5426,-3.5455,-3.5455,-3.5455,-3.5472,-3.5488,-3.5498,-3.5521,-3.5533,-3.5552,-3.5523,-3.5476,-3.5594,-3.5524,-3.5586,-3.5587,-3.5612,-3.5611,-3.5808,-3.5624,-3.5623,-3.5623,-3.5623,0,-3.5465,-3.5523,-3.5484,-3.5521,-3.5585,-3.5547,-3.5611,-3.5604,-3.5606,-3.5641,-3.5592,-3.5626,-3.5586,-3.5617,-3.5594,-3.5654,-3.566,-3.5651,-3.5645,-3.5655,-3.5656,-3.5664,-3.5654,-3.5628,-3.5627,-3.5626,-3.5625,0,-3.5622,-3.5598,-3.566,-3.5651,-3.565,-3.5697,-3.5689,-3.5723,-3.5708,-3.5753,-3.5761,-3.5737,-3.5771,-3.5744,-3.5777,-3.5762,-3.584,-3.5821,-3.5839,-3.5833,-3.5896,-3.589,-3.6104,-3.613,-3.593,-3.5932,-3.5934,0,-3.5717,-3.5761,-3.5756,-3.5777,-3.5779,-3.5812,-3.5829,-3.5794,-3.5813,-3.5822,-3.5855,-3.5885,-3.5906,-3.5962,-3.5948,-3.5973,-3.5954,-3.6027,-3.5957,-3.5967,-3.5954,-3.5952,-3.5956,-3.6041,-3.6044,-3.6045,-3.6047,0,-3.5889,-3.5875,-3.5901,-3.5924,-3.5945,-3.5961,-3.5972,-3.5992,-3.5956,-3.598,-3.6014,-3.6031,-3.6065,-3.6094,-3.6115,-3.6113,-3.6075,-3.607,-3.6085,-3.6096,-3.6104,-3.61,-3.5876,-3.6064,-3.6063,-3.6061,-3.606,-3.606,-3.6017,-3.6054,-3.6056,-3.6087,-3.6093,-3.6105,-3.6137,-3.6126,-3.6154,-3.6178,-3.6156,-3.6197,-3.6201,-3.6224,-3.6228,-3.626,-3.6229,-3.6252,-3.6257,-3.6263,-3.6272,-3.61,-3.6263,-3.6263,-3.6262,-3.6262,-3.6261,0,-3.6186,-3.6185,-3.6214,-3.6233,-3.6257,-3.6219,-3.6231,-3.6253,-3.629,-3.6297,-3.632,-3.6359,-3.6388,-3.6377,-3.6402,-3.6429,-3.6412,-3.6437,-3.6434,-3.6435,-3.6298,-3.6282,-3.6451,-3.6451,-3.6451,-3.6451,-3.6451,-3.6451,-3.6277,-3.6336,-3.6323,-3.6385,-3.6383,-3.6423,-3.6433,-3.6444,-3.645,-3.6496,-3.652,-3.6513,-3.6512,-3.6538,-3.6563,-3.6559,-3.657,-3.6602,-3.6591,-3.6463,-3.6444,-3.6427,-3.6411,-3.6605,-3.6605,-3.6725,-3.6726,-3.6727]},{"header":{"parameterUnit":"m.s-1","parameterCategory":1,"la1":30.2991,"la2":30.254,"lo1":-89.0895,"lo2":-89.0444,"dy":0.0017,"dx":0.0017,"nx":28,"ny":28,"refTime":"2023-11-10T09:00:00:Z","depth":0,"parameterNumber":3,"parameterNumberName":"V-component_of_WINDS"},"data":[0,0,0,0,0,0,0,0,0,0,0,0,0,0,0,0,0,0,0,0,0,0,0,0,0,0,0,0,0,0,0,0,0,0,0,0,0,0,0,0,0,0,0,0,0,0,0,0,0,0,0,0,0,0,0,0,0,0,-0.3968,-0.3968,0,-0.394,-0.3939,-0.3939,-0.3938,-0.3938,-0.3938,-0.3939,-0.3909,-0.3908,-0.3907,0,0,0,0,0,0,0,0,0,0,0,0,0,-0.4018,-0.4017,-0.3968,-0.3968,-0.3967,-0.394,-0.3939,-0.3939,-0.3938,-0.3938,-0.3938,-0.3939,-0.391,-0.3908,-0.3907,0,0,0,0,0,0,0,0,0,0,0,0,0,-0.3994,-0.4017,-0.3968,-0.3963,-0.3963,-0.394,-0.3939,-0.3939,-0.3937,-0.3938,-0.3938,-0.3939,-0.391,-0.3909,-0.3907,-0.3887,0,0,-0.3902,-0.3901,0,0,0,0,0,0,0,0,-0.3995,-0.3992,-0.3964,-0.3964,-0.3963,-0.3943,-0.3946,-0.3921,-0.3937,-0.3947,-0.3939,-0.3939,-0.392,-0.3918,-0.3911,-0.3886,-0.3884,-0.3902,-0.3901,-0.39,-0.39,0,0,0,0,0,0,0,-0.3997,-0.3993,-0.3957,-0.3964,-0.3963,-0.3962,-0.3959,-0.3942,-0.3931,-0.3946,-0.3946,-0.3943,-0.392,-0.3913,-0.391,-0.3884,-0.3902,-0.39,-0.3899,-0.3899,-0.3837,-0.3836,0,0,0,0,0,0,-0.4,-0.3995,-0.3958,-0.3956,-0.3981,-0.396,-0.3957,-0.3949,-0.3931,-0.3929,-0.3942,-0.3943,-0.3915,-0.3912,-0.3909,-0.3883,-0.39,-0.3899,-0.3898,-0.3838,-0.3837,-0.3836,0,0,0,0,0,0,-0.4001,-0.3997,-0.3959,-0.3975,-0.397,-0.3959,-0.3949,-0.3948,-0.3941,-0.3928,-0.3926,-0.3937,-0.3916,-0.3912,-0.3892,-0.3882,-0.3898,-0.3896,-0.3838,-0.3837,-0.3836,-0.3831,0,0,0,0,0,0,-0.4002,-0.3997,-0.399,-0.3975,-0.397,-0.3943,-0.3949,-0.3947,-0.3938,-0.3938,-0.3923,-0.3921,-0.3916,-0.3894,-0.389,-0.388,-0.3895,-0.3839,-0.3838,-0.3837,-0.3832,-0.383,-0.3828,0,0,0,0,0,-0.4004,-0.399,-0.399,-0.3985,-0.3961,-0.3942,-0.3939,-0.3933,-0.3938,-0.393,-0.3921,-0.3922,-0.3884,-0.3892,-0.3888,-0.3877,-0.384,-0.3838,-0.3837,-0.3833,-0.383,-0.3828,0,0,0,0,0,0,-0.4005,-0.3988,-0.3988,-0.3969,-0.3957,-0.3942,-0.3932,-0.3931,-0.3917,-0.3918,-0.3911,-0.3908,-0.3887,-0.388,-0.389,-0.3855,-0.3862,-0.386,-0.386,-0.3858,-0.3856,-0.3858,-0.3894,0,0,0,0,0,-0.4003,-0.399,-0.3976,-0.396,-0.3954,-0.3944,-0.3936,-0.3932,-0.3919,-0.3914,-0.3904,-0.3892,-0.3876,-0.3867,-0.3853,-0.3831,-0.3826,-0.382,-0.3818,-0.3817,-0.3815,-0.38,-0.3796,-0.3831,-0.3831,-0.3831,0,0,-0.3999,-0.3988,-0.398,-0.396,-0.395,-0.3935,-0.394,-0.3925,-0.3913,-0.3912,-0.3892,-0.3884,-0.3869,-0.3847,-0.3837,-0.3841,-0.3804,-0.3815,-0.3814,-0.3812,-0.3798,-0.3794,-0.3791,-0.383,-0.383,-0.3831,0,0,-0.3983,-0.3974,-0.3959,-0.3948,-0.3933,-0.3926,-0.3923,-0.3907,-0.3902,-0.3881,-0.3879,-0.3865,-0.384,-0.3829,-0.382,-0.3796,-0.3795,-0.3792,-0.3781,-0.3767,-0.3764,-0.3761,-0.3751,-0.3747,-0.379,-0.379,-0.379,0,-0.3979,-0.3958,-0.3951,-0.3935,-0.3925,-0.3923,-0.3906,-0.3896,-0.3877,-0.387,-0.3874,-0.384,-0.383,-0.3804,-0.3798,-0.3792,-0.3786,-0.3793,-0.3765,-0.3762,-0.376,-0.375,-0.3746,-0.3789,-0.3789,-0.3789,-0.3789,0,-0.3953,-0.3937,-0.3927,-0.3908,-0.3897,-0.3881,-0.387,-0.386,-0.3856,-0.3848,-0.3826,-0.3814,-0.3795,-0.3789,-0.3786,-0.3762,-0.3764,-0.3766,-0.3774,-0.3756,-0.3746,-0.3743,-0.3788,-0.3789,-0.3789,-0.3789,0,0,-0.3939,-0.3914,-0.391,-0.39,-0.3882,-0.3869,-0.3852,-0.3833,-0.3823,-0.381,-0.3794,-0.3771,-0.3772,-0.3762,-0.3757,-0.3744,-0.3723,-0.3748,-0.3748,-0.3742,-0.3693,-0.369,-0.3686,-0.3723,-0.3722,-0.3721,-0.3693,0,-0.392,-0.3889,-0.3881,-0.3855,-0.3839,-0.3835,-0.3819,-0.3805,-0.3797,-0.3781,-0.3772,-0.3755,-0.3759,-0.3752,-0.374,-0.3729,-0.3713,-0.3731,-0.3706,-0.3705,-0.3709,-0.3681,-0.3679,-0.3653,-0.369,-0.3689,-0.3689,0,-0.3894,-0.3879,-0.385,-0.3831,-0.3824,-0.381,-0.3791,-0.3777,-0.376,-0.3755,-0.3742,-0.3737,-0.3717,-0.3725,-0.3696,-0.3708,-0.3698,-0.369,-0.3689,-0.3686,-0.3695,-0.3676,-0.3645,-0.3641,-0.3683,-0.3683,-0.3684,0,-0.3884,-0.3856,-0.3835,-0.3827,-0.3804,-0.3794,-0.3784,-0.3768,-0.3756,-0.3739,-0.3731,-0.3713,-0.3702,-0.3687,-0.3676,-0.3684,-0.3647,-0.3655,-0.3641,-0.3641,-0.3633,-0.3633,-0.3599,-0.3628,-0.3628,-0.3628,-0.3628,0,-0.3864,-0.3846,-0.383,-0.3817,-0.3795,-0.3786,-0.3765,-0.3755,-0.374,-0.3724,-0.3719,-0.3703,-0.3692,-0.3674,-0.3666,-0.3641,-0.3637,-0.3631,-0.3629,-0.3631,-0.3631,-0.3623,-0.3624,-0.3627,-0.3627,-0.3628,-0.3628,0,-0.3849,-0.3838,-0.3814,-0.3794,-0.3788,-0.3774,-0.3756,-0.3742,-0.3732,-0.3711,-0.3705,-0.369,-0.3668,-0.3657,-0.3631,-0.3625,-0.3597,-0.3597,-0.3602,-0.3601,-0.3586,-0.3587,-0.3544,-0.3537,-0.3573,-0.3572,-0.3572,0,-0.3837,-0.3823,-0.38,-0.3789,-0.3778,-0.376,-0.3747,-0.3737,-0.3724,-0.3701,-0.3689,-0.3668,-0.3649,-0.3615,-0.3601,-0.358,-0.3578,-0.3564,-0.3575,-0.3576,-0.3575,-0.3575,-0.3573,-0.3562,-0.3562,-0.3561,-0.3561,0,-0.3815,-0.3809,-0.3791,-0.377,-0.3755,-0.3739,-0.3722,-0.3713,-0.3698,-0.3684,-0.3661,-0.3647,-0.3618,-0.3596,-0.3573,-0.3562,-0.3558,-0.3558,-0.3553,-0.3554,-0.3557,-0.3553,-0.3596,-0.3559,-0.3559,-0.3559,-0.3559,-0.3559,-0.38,-0.3786,-0.3767,-0.3746,-0.3732,-0.3716,-0.3701,-0.3688,-0.3669,-0.3645,-0.364,-0.3615,-0.3596,-0.3564,-0.3552,-0.3531,-0.3534,-0.3528,-0.3526,-0.3524,-0.3522,-0.3561,-0.3528,-0.3528,-0.3528,-0.3528,-0.3528,0,-0.3776,-0.3763,-0.3744,-0.372,-0.3703,-0.3701,-0.3681,-0.3667,-0.3645,-0.3627,-0.3609,-0.3581,-0.3558,-0.3541,-0.3518,-0.3504,-0.3502,-0.3498,-0.3499,-0.3495,-0.3522,-0.3528,-0.35,-0.35,-0.35,-0.35,-0.35,-0.35,-0.3761,-0.3737,-0.3728,-0.3695,-0.3682,-0.3658,-0.3647,-0.3631,-0.3616,-0.3585,-0.3566,-0.3555,-0.3536,-0.351,-0.3488,-0.3484,-0.3474,-0.3471,-0.3466,-0.3491,-0.3494,-0.3497,-0.3502,-0.3469,-0.3469,-0.344,-0.344,-0.344]}]]